[[{"header":{"parameterUnit":"m.s-1","parameterCategory":1,"la1":30.2991,"la2":30.254,"lo1":-89.0895,"lo2":-89.0444,"dy":0.0017,"dx":0.0017,"nx":28,"ny":28,"refTime":"2023-10-17T09:00:00:Z","depth":0,"parameterNumber":2,"parameterNumberName":"U-component_of_WINDS"},"data":[0,0,0,0,0,0,0,0,0,0,0,0,0,0,0,0,0,0,0,0,0,0,0,0,0,0,0,0,0,0,0,0,0,0,0,0,0,0,0,0,0,0,0,0,0,0,0,0,0,0,0,0,0,0,0,0,0,0,1.933,1.9329,0,1.9293,1.9292,1.9292,1.9247,1.9246,1.9246,1.9245,1.9205,1.9205,1.9205,0,0,0,0,0,0,0,0,0,0,0,0,0,1.936,1.936,1.933,1.9329,1.9329,1.9293,1.9292,1.9292,1.9247,1.9246,1.9245,1.9245,1.9205,1.9205,1.9205,0,0,0,0,0,0,0,0,0,0,0,0,0,1.9337,1.9359,1.933,1.9302,1.9299,1.9293,1.9292,1.9292,1.9247,1.9246,1.9245,1.9244,1.9206,1.9205,1.9204,1.9222,0,0,1.9203,1.9202,0,0,0,0,0,0,0,0,1.9339,1.9336,1.9307,1.9304,1.9301,1.9273,1.9289,1.9268,1.9248,1.9267,1.9245,1.9244,1.9229,1.9226,1.9222,1.922,1.9218,1.9203,1.9202,1.9202,1.9202,0,0,0,0,0,0,0,1.934,1.9338,1.9315,1.9306,1.9303,1.9291,1.9287,1.9284,1.9254,1.9265,1.9262,1.9258,1.9227,1.9222,1.922,1.9218,1.9203,1.9202,1.9202,1.9201,1.9228,1.923,0,0,0,0,0,0,1.9346,1.9339,1.9316,1.9314,1.9318,1.9292,1.9287,1.9283,1.9254,1.9249,1.9259,1.9256,1.9224,1.9221,1.9219,1.9237,1.9202,1.9201,1.9201,1.9227,1.9229,1.923,0,0,0,0,0,0,1.9347,1.9345,1.9318,1.9326,1.9321,1.9292,1.9289,1.9283,1.9278,1.925,1.9244,1.926,1.9223,1.922,1.9221,1.9235,1.9201,1.9201,1.9226,1.9228,1.9229,1.9273,0,0,0,0,0,0,1.9348,1.9345,1.9352,1.9326,1.9321,1.9322,1.929,1.9283,1.9278,1.9274,1.9249,1.9244,1.9222,1.9223,1.9221,1.9233,1.92,1.9225,1.9227,1.9229,1.927,1.9276,1.9281,0,0,0,0,0,1.9349,1.9365,1.9352,1.935,1.9329,1.9322,1.9319,1.9295,1.9279,1.9285,1.9267,1.9244,1.9234,1.9223,1.9221,1.9233,1.9224,1.9226,1.9229,1.9268,1.9275,1.9281,0,0,0,0,0,0,1.9392,1.9361,1.9346,1.9355,1.9342,1.9315,1.9322,1.9303,1.9293,1.929,1.9259,1.9254,1.9259,1.9246,1.9235,1.9249,1.9226,1.9228,1.9256,1.9263,1.9268,1.927,1.92,0,0,0,0,0,1.9403,1.94,1.9373,1.9383,1.9378,1.9351,1.9347,1.9329,1.9314,1.9308,1.929,1.9276,1.9269,1.9266,1.9258,1.9269,1.9263,1.9276,1.9282,1.9286,1.9288,1.9293,1.9298,1.9238,1.9238,1.9238,0,0,1.9424,1.9407,1.9407,1.9391,1.9379,1.9377,1.9347,1.9346,1.9344,1.9308,1.9309,1.9295,1.9277,1.9284,1.9286,1.9273,1.9304,1.9289,1.9293,1.9292,1.9296,1.9301,1.9306,1.9239,1.9239,1.9239,0,0,1.9461,1.9449,1.9455,1.9444,1.9426,1.9409,1.9411,1.9387,1.9377,1.9377,1.935,1.9348,1.9337,1.9325,1.9318,1.9353,1.9332,1.9351,1.9378,1.9383,1.9388,1.9392,1.9404,1.9408,1.9353,1.9354,1.9354,0,1.949,1.9486,1.9461,1.9462,1.9456,1.9424,1.9431,1.9421,1.9401,1.9397,1.9384,1.9371,1.9357,1.936,1.9369,1.9364,1.9364,1.9353,1.939,1.9393,1.9397,1.9407,1.9412,1.9356,1.9356,1.9355,1.9355,0,1.9522,1.952,1.9527,1.951,1.9505,1.9509,1.9483,1.9481,1.9464,1.9448,1.9449,1.9431,1.9419,1.9419,1.9402,1.942,1.9413,1.9395,1.9371,1.9405,1.9415,1.9419,1.9359,1.9359,1.9358,1.9357,0,0,1.9583,1.9553,1.9556,1.9548,1.9527,1.9525,1.9527,1.9516,1.9515,1.9503,1.9504,1.9496,1.948,1.9472,1.9453,1.9458,1.9486,1.9439,1.9439,1.9448,1.9504,1.9517,1.9522,1.9473,1.9473,1.9474,1.9505,0,1.9616,1.9619,1.9597,1.9605,1.9603,1.9574,1.9576,1.9563,1.9548,1.9544,1.9527,1.9522,1.9502,1.9496,1.95,1.9482,1.9497,1.948,1.9472,1.9472,1.9476,1.9527,1.954,1.957,1.9509,1.9509,1.951,0,1.9654,1.9645,1.9654,1.9633,1.9631,1.9633,1.9622,1.9618,1.9603,1.9592,1.9584,1.9563,1.9564,1.9542,1.9542,1.9531,1.9527,1.9518,1.9519,1.9516,1.9492,1.9524,1.9579,1.9584,1.9516,1.9515,1.9515,0,1.9698,1.9688,1.9691,1.9685,1.9661,1.9663,1.9653,1.9637,1.9632,1.9622,1.9619,1.9609,1.9603,1.9596,1.9573,1.956,1.9576,1.9553,1.9566,1.9567,1.9569,1.9569,1.9623,1.9569,1.9569,1.9569,1.9569,0,1.9736,1.9742,1.971,1.9712,1.9718,1.9693,1.97,1.9687,1.9673,1.9672,1.9646,1.9646,1.9616,1.9612,1.9595,1.9597,1.9595,1.9585,1.958,1.9587,1.9588,1.9583,1.958,1.957,1.957,1.957,1.9569,0,1.9784,1.9763,1.9765,1.9743,1.9737,1.9743,1.9723,1.9724,1.9708,1.9707,1.9705,1.9681,1.9675,1.9652,1.964,1.9628,1.9636,1.9627,1.9641,1.9638,1.9652,1.9651,1.9704,1.9709,1.9653,1.9653,1.9654,0,1.9809,1.9813,1.9791,1.9789,1.978,1.9777,1.9772,1.9748,1.9744,1.9727,1.973,1.9723,1.9715,1.9707,1.9687,1.9678,1.9668,1.9688,1.9667,1.9673,1.9667,1.9667,1.9667,1.9692,1.9692,1.9693,1.9693,0,1.9855,1.9845,1.984,1.9831,1.9826,1.9818,1.9808,1.9807,1.978,1.9777,1.9771,1.9765,1.9754,1.9746,1.9734,1.9723,1.9704,1.9701,1.9703,1.9709,1.9717,1.9712,1.9652,1.9699,1.9698,1.9698,1.9698,1.9697,1.9892,1.9894,1.9879,1.9874,1.9864,1.9856,1.9856,1.9841,1.9835,1.9825,1.9811,1.9807,1.9792,1.9774,1.9765,1.9761,1.975,1.9753,1.9754,1.9755,1.9758,1.9719,1.9758,1.9758,1.9758,1.9758,1.9758,0,1.9936,1.9925,1.9921,1.9908,1.9904,1.9888,1.9876,1.9873,1.987,1.9858,1.9852,1.9845,1.9838,1.9819,1.981,1.981,1.9801,1.9808,1.9807,1.9805,1.9769,1.9767,1.9816,1.9816,1.9816,1.9816,1.9816,1.9816,1.9958,1.9961,1.995,1.9948,1.9937,1.9933,1.9928,1.992,1.991,1.9904,1.9898,1.9886,1.9871,1.9861,1.9854,1.9848,1.9845,1.9856,1.9847,1.9813,1.9808,1.9802,1.98,1.9856,1.9856,1.9884,1.9884,1.9884]},{"header":{"parameterUnit":"m.s-1","parameterCategory":1,"la1":30.2991,"la2":30.254,"lo1":-89.0895,"lo2":-89.0444,"dy":0.0017,"dx":0.0017,"nx":28,"ny":28,"refTime":"2023-10-17T09:00:00:Z","depth":0,"parameterNumber":3,"parameterNumberName":"V-component_of_WINDS"},"data":[0,0,0,0,0,0,0,0,0,0,0,0,0,0,0,0,0,0,0,0,0,0,0,0,0,0,0,0,0,0,0,0,0,0,0,0,0,0,0,0,0,0,0,0,0,0,0,0,0,0,0,0,0,0,0,0,0,0,-4.4817,-4.4818,0,-4.4973,-4.4975,-4.4977,-4.4923,-4.4919,-4.4916,-4.4913,-4.5069,-4.5076,-4.5083,0,0,0,0,0,0,0,0,0,0,0,0,0,-4.4468,-4.4474,-4.4816,-4.4818,-4.482,-4.4973,-4.4975,-4.4977,-4.4923,-4.4919,-4.4915,-4.4911,-4.5066,-4.5075,-4.5084,0,0,0,0,0,0,0,0,0,0,0,0,0,-4.4621,-4.4476,-4.4816,-4.4812,-4.4813,-4.4972,-4.4975,-4.4978,-4.4924,-4.4919,-4.4914,-4.4909,-4.5064,-4.5074,-4.5085,-4.5256,0,0,-4.5119,-4.5124,0,0,0,0,0,0,0,0,-4.4612,-4.4634,-4.4811,-4.4813,-4.4814,-4.4923,-4.4909,-4.5071,-4.4926,-4.4882,-4.4913,-4.4907,-4.5024,-4.5038,-4.5079,-4.5264,-4.527,-4.512,-4.5127,-4.5131,-4.5134,0,0,0,0,0,0,0,-4.4602,-4.4627,-4.4878,-4.4813,-4.4816,-4.4801,-4.4817,-4.494,-4.498,-4.4885,-4.4882,-4.4901,-4.5024,-4.5068,-4.5082,-4.5273,-4.512,-4.5129,-4.5136,-4.5141,-4.5607,-4.5612,0,0,0,0,0,0,-4.4591,-4.4618,-4.4873,-4.4883,-4.4699,-4.4812,-4.483,-4.4893,-4.4979,-4.4987,-4.4906,-4.4898,-4.5052,-4.5069,-4.5087,-4.5295,-4.5131,-4.5142,-4.5148,-4.5601,-4.5608,-4.5614,0,0,0,0,0,0,-4.4583,-4.4614,-4.4867,-4.475,-4.4781,-4.4823,-4.4895,-4.4899,-4.4943,-4.4994,-4.5,-4.4944,-4.5049,-4.5072,-4.5215,-4.5299,-4.5147,-4.5157,-4.5594,-4.5603,-4.5611,-4.571,0,0,0,0,0,0,-4.4574,-4.4612,-4.4678,-4.4752,-4.4787,-4.4994,-4.49,-4.4906,-4.4963,-4.4955,-4.5031,-4.5039,-4.5046,-4.5199,-4.5226,-4.5312,-4.5165,-4.5587,-4.5598,-4.5608,-4.5699,-4.5721,-4.5739,0,0,0,0,0,-4.4561,-4.4698,-4.4682,-4.4713,-4.4871,-4.4999,-4.5019,-4.5026,-4.497,-4.5037,-4.5069,-4.5036,-4.5285,-4.5214,-4.5244,-4.5334,-4.5582,-4.5595,-4.5608,-4.569,-4.5716,-4.5739,0,0,0,0,0,0,-4.4632,-4.4708,-4.469,-4.4855,-4.4921,-4.4989,-4.5074,-4.5053,-4.5135,-4.5124,-4.5128,-4.5146,-4.5294,-4.5328,-4.5247,-4.5505,-4.5425,-4.5445,-4.5477,-4.5503,-4.5522,-4.5511,-4.5174,0,0,0,0,0,-4.4667,-4.4765,-4.4825,-4.4965,-4.4999,-4.5031,-4.5087,-4.5087,-4.5154,-4.5182,-4.5224,-4.529,-4.5384,-4.5445,-4.5533,-4.5703,-4.5719,-4.578,-4.58,-4.5816,-4.5833,-4.5927,-4.5955,-4.5657,-4.5657,-4.5657,0,0,-4.4739,-4.4793,-4.4855,-4.4981,-4.5032,-4.5133,-4.5055,-4.5164,-4.5239,-4.5198,-4.5337,-4.5371,-4.5444,-4.5603,-4.5674,-4.5635,-4.5919,-4.5833,-4.5845,-4.5854,-4.5943,-4.5971,-4.5996,-4.5666,-4.5664,-4.5663,0,0,-4.4924,-4.4974,-4.5097,-4.515,-4.5229,-4.5249,-4.5279,-4.5351,-4.5372,-4.5512,-4.5484,-4.5571,-4.5732,-4.5786,-4.5834,-4.604,-4.6014,-4.6069,-4.6173,-4.6264,-4.6288,-4.6309,-4.6383,-4.641,-4.6085,-4.6086,-4.6086,0,-4.5004,-4.5156,-4.5162,-4.5275,-4.5332,-4.53,-4.5424,-4.5475,-4.5578,-4.5618,-4.5573,-4.5774,-4.5822,-4.5993,-4.6043,-4.6083,-4.6117,-4.6061,-4.6284,-4.6305,-4.6325,-4.6396,-4.6424,-4.6092,-4.6091,-4.6091,-4.609,0,-4.5252,-4.5357,-4.5447,-4.555,-4.5616,-4.5733,-4.5757,-4.5823,-4.5817,-4.5842,-4.5985,-4.604,-4.614,-4.618,-4.6175,-4.6351,-4.6325,-4.6283,-4.6202,-4.6359,-4.6426,-4.6454,-4.6101,-4.6099,-4.6097,-4.6095,0,0,-4.5485,-4.559,-4.5623,-4.567,-4.5755,-4.5836,-4.5952,-4.6051,-4.6109,-4.618,-4.6278,-4.6415,-4.6377,-4.6432,-4.6432,-4.6512,-4.6673,-4.646,-4.6462,-4.6499,-4.6872,-4.6904,-4.6936,-4.6656,-4.6661,-4.6665,-4.6866,0,-4.5677,-4.5884,-4.5893,-4.608,-4.6178,-4.615,-4.6251,-4.6314,-4.634,-4.6426,-4.6454,-4.6552,-4.6493,-4.6527,-4.6605,-4.6637,-4.6748,-4.6623,-4.6746,-4.6751,-4.673,-4.6971,-4.7005,-4.7192,-4.6892,-4.6897,-4.69,0,-4.593,-4.6012,-4.621,-4.6282,-4.6323,-4.6414,-4.6507,-4.6589,-4.666,-4.6673,-4.6736,-4.6725,-4.6843,-4.6758,-4.6921,-4.6836,-4.6886,-4.691,-4.6918,-4.693,-4.6836,-4.6991,-4.7252,-4.7281,-4.6941,-4.6937,-4.6935,0,-4.6082,-4.6241,-4.6381,-4.6421,-4.6508,-4.6573,-4.6612,-4.6678,-4.6737,-4.6817,-4.6856,-4.6948,-4.6998,-4.7069,-4.7083,-4.702,-4.7247,-4.7163,-4.7261,-4.7261,-4.7311,-4.7308,-4.7586,-4.7342,-4.7342,-4.7341,-4.7341,0,-4.6296,-4.6419,-4.6451,-4.6536,-4.6673,-4.6681,-4.6815,-4.6849,-4.6908,-4.6999,-4.6979,-4.7065,-4.7078,-4.7167,-4.7178,-4.7312,-4.7334,-4.7348,-4.735,-4.7351,-4.735,-4.7385,-4.7373,-4.7349,-4.7347,-4.7346,-4.7344,0,-4.649,-4.6516,-4.6666,-4.6737,-4.6758,-4.6855,-4.6915,-4.6997,-4.7021,-4.7137,-4.7165,-4.7202,-4.7306,-4.7327,-4.7449,-4.7456,-4.7616,-4.7604,-4.7593,-4.7593,-4.769,-4.7681,-4.8001,-4.8044,-4.7771,-4.7774,-4.7776,0,-4.6626,-4.672,-4.6801,-4.6862,-4.6905,-4.7002,-4.7063,-4.7075,-4.7139,-4.7227,-4.7298,-4.74,-4.7482,-4.7649,-4.7687,-4.778,-4.7771,-4.7877,-4.7785,-4.7783,-4.7774,-4.7769,-4.7779,-4.7894,-4.7897,-4.79,-4.7902,0,-4.6865,-4.6874,-4.6963,-4.7058,-4.7132,-4.7207,-4.7277,-4.7328,-4.7349,-4.7422,-4.7529,-4.7593,-4.7718,-4.782,-4.7914,-4.7952,-4.7932,-4.793,-4.7958,-4.7961,-4.7951,-4.7959,-4.7643,-4.7923,-4.7921,-4.7919,-4.7918,-4.7917,-4.7035,-4.7117,-4.7188,-4.7289,-4.7344,-4.7411,-4.7492,-4.7527,-4.7617,-4.7721,-4.7722,-4.7839,-4.7907,-4.8031,-4.8075,-4.8166,-4.8133,-4.8173,-4.8183,-4.8194,-4.8204,-4.7936,-4.8183,-4.8182,-4.8182,-4.8181,-4.8181,0,-4.7274,-4.7318,-4.7411,-4.7512,-4.7591,-4.7565,-4.7643,-4.771,-4.7814,-4.788,-4.7962,-4.8085,-4.8184,-4.8229,-4.8326,-4.8391,-4.8383,-4.8416,-4.8412,-4.8421,-4.8227,-4.8194,-4.842,-4.842,-4.842,-4.842,-4.842,-4.842,-4.7408,-4.7547,-4.7564,-4.773,-4.7773,-4.7889,-4.7935,-4.7997,-4.805,-4.8189,-4.8271,-4.8301,-4.8359,-4.846,-4.8549,-4.856,-4.8597,-4.8635,-4.8641,-4.8459,-4.8435,-4.8412,-4.8381,-4.8642,-4.8643,-4.8828,-4.883,-4.8831]}]]